www.pogodaiklimat.ru

Погода и климат >> Архив погоды >> Австралия >> Северная территория >> Ладжаману


ПОГОДА в Ладжаману

  • Прогноз погоды в Ладжаману
  • Монитор погоды в Ладжаману

АРХИВ ПОГОДЫ в Ладжаману

Время (UTC), дата Ветер
(напр.,м/с)
 
Видим.   Явления Облачность Т
(С)
Тd
(С)
f
(%)
Тe
(С)
Тes
(С)
Комфортность P
(гПа)
Po
(гПа)
Тmin
(С)
Tmax
(С)
R
(мм)
R24
(мм)
S
(см)
14 15.09 ЮВ 2 н/о н/о +20.4 -8.9 13 +20 +20 1015.5 979.7 +34.6
17 15.09 штиль 0 н/о н/о +16.2 -9.6 16 +16 +16 1014.8 979.0
20 15.09 С 3 н/о н/о +16.0 -10.6 15 +16 +16 1015.7 979.8
23 15.09 штиль 0 н/о н/о +21.1 -7.4 14 +20 +20 1017.1 981.2
02 16.09 С 5 н/о н/о +29.9 -3.7 11 +27 +27 жарко 1016.8 980.9 +12.6
05 16.09 СВ 5 н/о н/о +33.7 -6.8 7 +29 +29 жарко 1013.7 977.9
08 16.09 ЮВ 1 н/о н/о +33.2 -5.5 8 +29 +29 жарко 1012.6 976.9
11 16.09 В 2 н/о н/о +24.5 -5.7 13 +22 +22 комфорт 1014.1 978.3
14 16.09 ЮВ 2 н/о н/о +19.9 -6.6 16 +20 +20 1014.6 978.8 +35.0
17 16.09 Ю 2 н/о н/о +17.6 -5.6 20 +18 +18 1013.7 977.9
20 16.09 СВ 3 н/о н/о +19.7 -6.0 17 +20 +20 1014.5 978.7
23 16.09 С 7 н/о н/о +25.2 +4.9 27 +25 +25 комфорт 1016.4 980.5
02 17.09 С 6 н/о н/о +32.1 +5.6 19 +30 +30 жарко 1015.8 979.9 +16.6
05 17.09 СВ 5 н/о н/о +34.8 -1.3 10 +31 +31 жарко 1013.8 978.0
08 17.09 СВ 5 н/о н/о +33.4 -1.0 11 +30 +30 жарко 1013.2 977.4
11 17.09 штиль 0 н/о н/о +25.7 -0.4 18 +24 +24 комфорт 1014.9 979.1
14 17.09 СВ 2 н/о н/о +21.3 -0.6 23 +21 +21 комфорт 1015.5 979.7 +35.8
17 17.09 штиль 0 н/о н/о +18.6 -0.7 27 +19 +19 1015.4 979.6
20 17.09 штиль 0 н/о н/о +16.1 -0.6 32 +16 +16 1016.0 980.1
23 17.09 СВ 3 н/о н/о +25.5 -3.0 15 +23 +23 комфорт 1017.7 981.8
02 18.09 В 7 н/о н/о +33.0 -2.6 10 +29 +29 жарко 1017.4 981.5 +15.5
05 18.09 В 6 н/о н/о +35.3 -3.9 8 +31 +31 жарко 1014.5 978.7
08 18.09 В 5 н/о н/о +34.8 -4.3 8 +31 +31 жарко 1013.4 977.6
11 18.09 В 3 н/о н/о +27.3 -4.6 12 +24 +24 комфорт 1014.6 978.8
14 18.09 В 3 н/о н/о +23.0 -5.0 15 +21 +21 комфорт 1015.2 979.4 +36.6
17 18.09 СЗ 2 н/о н/о +19.3 -4.2 20 +20 +20 1014.4 978.6
20 18.09 СВ 3 н/о н/о +19.6 -3.3 21 +20 +20 1014.6 978.8
23 18.09 В 3 н/о н/о +25.9 -2.7 15 +24 +24 комфорт 1016.1 980.2
02 19.09 С 5 н/о н/о +33.1 -2.6 10 +29 +29 жарко 1014.9 979.1 +16.5
05 19.09 СВ 4 н/о н/о +35.3 -3.9 8 +31 +31 жарко 1011.4 975.7
08 19.09 С 4 н/о н/о +34.4 -4.6 8 +30 +30 жарко 1010.0 974.3
11 19.09 С 3 н/о н/о +28.8 -4.6 11 +26 +26 жарко 1011.5 975.8
14 19.09 С 4 н/о н/о +28.4 -3.7 12 +25 +25 комфорт 1011.8 976.1 +36.6
17 19.09 С 4 н/о н/о +25.9 -3.6 14 +24 +24 комфорт 1010.6 974.9
20 19.09 С 4 н/о н/о +24.3 +0.6 21 +23 +23 комфорт 1010.5 974.8
23 19.09 С 4 н/о н/о +27.8 -1.2 15 +25 +25 комфорт 1012.9 977.1
02 20.09 СЗ 5 н/о н/о +33.1 +6.4 19 +31 +31 жарко 1012.0 976.3 +20.4
05 20.09 З 6 н/о н/о +36.4 +2.5 12 +33 +33 жарко 1009.2 973.6
08 20.09 З 4 н/о н/о +36.0 +0.9 11 +32 +32 жарко 1008.5 972.9
11 20.09 ЮЗ 3 н/о н/о +30.4 -1.1 13 +27 +27 жарко 1010.4 974.7
14 20.09 Ю 4 н/о н/о +28.3 -1.7 14 +26 +26 жарко 1011.3 975.6 +37.9
17 20.09 Ю 3 н/о н/о +24.9 -1.0 18 +23 +23 комфорт 1011.7 976.0
20 20.09 Ю 3 н/о н/о +22.0 -0.1 23 +21 +21 комфорт 1012.6 976.9
23 20.09 ЮВ 7 н/о н/о +24.5 +3.2 25 +24 +24 комфорт 1015.3 979.5
02 21.09 ЮВ 6 н/о н/о +30.1 +3.2 18 +28 +28 жарко 1015.0 979.2 +19.6
05 21.09 Ю 4 н/о н/о +34.3 +0.8 12 +31 +31 жарко 1012.2 976.5
08 21.09 ЮВ 4 н/о н/о +33.5 +1.3 13 +30 +30 жарко 1011.5 975.8
11 21.09 Ю 3 н/о н/о +29.2 +0.8 16 +27 +27 жарко 1013.1 977.3
14 21.09 ЮВ 5 н/о н/о +26.5 +2.4 21 +25 +25 комфорт 1013.9 978.1 +35.7
17 21.09 ЮВ 8 н/о н/о +25.9 +1.9 21 +24 +24 комфорт 1013.4 977.6
20 21.09 В 7 н/о н/о +24.0 +1.0 22 +23 +23 комфорт 1014.9 979.1
23 21.09 В 7 н/о н/о +24.9 +0.4 20 +23 +23 комфорт 1018.3 982.4
02 22.09 В 8 н/о н/о +28.9 +2.2 18 +27 +27 жарко 1018.2 982.3 +23.3
05 22.09 В 6 н/о н/о +33.3 +6.6 19 +31 +31 жарко 1015.0 979.2
08 22.09 В 7 н/о н/о +33.0 +5.5 18 +31 +31 жарко 1014.2 978.4
11 22.09 В 4 н/о н/о +29.5 +4.2 20 +28 +28 жарко 1016.2 980.3

 

Местоположение метеостанции Ладжаману (Северная территория, Австралия): широта -18.33 долгота 130.63 высота над уровнем моря 317 м.

В архиве по умолчанию представлена погода в Ладжаману за последнюю неделю. Архивные данные за месяц целиком и за предыдущие месяцы, начиная с января 2011 года, Вы можете получить, выбрав интересующий диапазон дат из раскрывающегося списка и нажав кнопку "Ввод!".


*Определитесь, кто Вы:
робот инопланетянин человек

Внимание! Время в таблицах - всемирное. Для получения местного времени необходимо прибавить поправку, которая равна 9.5 ч.

Смотрите также архив погоды в соседних городах и на ближайших метеорологических станциях:

Погода в Раббит Флат (Северная территория, Австралия) (216 км)
Погода в Виктория-Ривер (Северная территория, Австралия) (219 км)
Погода в Аэропорту Аргайл (Западная Австралия, Австралия) (299 км)
Погода в Холс Крик (Западная Австралия, Австралия) (314 км)
Погода на Базе ВВС Delamere Weapons Range (Северная территория, Австралия) (318 км)
Погода в Кунунарре (Западная Австралия, Австралия) (349 км)
Погода в Дейли Уотерс (Северная территория, Австралия) (372 км)
Погода в Манбуллу Ксиро (Северная территория, Австралия) (376 км)
Погода в Теннант-Крике (Северная территория, Австралия) (400 км)
Погода в Уиндеме (Западная Австралия, Австралия) (411 км)

Пояснения к столбцам:

Ветер - указаны скорость ветра в м/с - средняя за 10 мин, порывы в срок и между сроками (в фигурных скобках) и направление, откуда дует ветер: С - северный, СВ - северо-восточный, В - восточный, ЮВ - юго-восточный, Ю - южный, ЮЗ - юго-западный, З - западный, СЗ - северо-западный.
Видимость - горизонтальная дальность видимости в метрах или километрах. При видимости от 1 до 10 км при отсутствии осадков обычно наблюдается дымка, при ухудшении видимости до 1 км и менее - туман. В сухую погоду видимость может ухудшаться дымом, пылью или мглою.
Явления - указаны атмосферные явления, наблюдавшиеся в срок или в последний час перед сроком; фигурными скобками обозначены явления, наблюдавшиеся между сроками (за 1-3 часа до срока); квадратными скобками обозначены град или гололедные отложения с указанием их диаметра в мм.
Облачность - указаны через наклонную черту общая и нижняя облачность в баллах и высота нижней границы облаков в метрах; квадратными скобками обозначены формы облаков: Ci - перистые, Cs - перисто-слоистые, Cc - перисто-кучевые, Ac - высококучевые, As - высокослоистые, Sc - слоисто-кучевые, Ns - слоисто-дождевые, Cu - кучевые, Cb - кучево-дождевые. Подробнее классификацию облаков см. в Атласе облаков (PDF).
T - Температура воздуха - температура, измеренная на высоте 2 м над землей.
Td - Температура точки росы - температура, при понижении до которой содержащийся в воздухе водяной пар достигнет насыщения.
f - Относительная влажность воздуха - влажноcть воздуха, измеренная на высоте 2 м над землей.
Te - Эффективная температура - температура, которую ощущает одетый по сезону человек в тени. Характеристика душности погоды. При расчете учитывается влияние влажности воздуха и скорости ветра на теплоощущения человека.
Tes - Эффективная температура на солнце - температура, которую ощущает человек, с поправкой на солнечный нагрев. Характеристика знойности погоды. Зависит от высоты солнца над горизонтом, облачности и скорости ветра. Ночью, в пасмурную погоду, а также при ветре 12 м/с и более поправка равна нулю.
P - Атмосферное давление - приведенное к уровню моря атмосферное давление.
Po - Атмосферное давление - измеренное на уровне метеостанции атмосферное давление.
Tmin - Минимальная температура - минимум температуры воздуха на высоте 2 м над землей.
Tmax - Максимальная температура - максимум температуры воздуха на высоте 2 м над землей.
R - Количество осадков - Количество выпавших осадков за период времени, мм. При наведении курсора мыши на число - период времени, за который выпало указанное количество осадков.
R24 - Количество осадков - Количество выпавших осадков за 24 часа, мм.
S - Снежный покров - Высота снежного покрова, см. При наведении курсора мыши на число - состояние снежного покрова и степень покрытия местности в баллах.